Regional Weather Roundup
Issued by NWS Sterling, VA

Home | Current Version | Previous Version | Graphics & Text | Print | Product List | Glossary On
Versions: 1 2 3 4 5 6 7 8 9 10 11 12 13 14 15 16 17 18 19 20 21 22 23 24 25 26 27
000
ASUS41 KLWX 030810
RWRLWX

REGIONAL WEATHER ROUNDUP
NATIONAL WEATHER SERVICE BALTIMORE MD/WASHINGTON DC
400 AM EDT TUE MAY 03 2016

Note: "FAIR" indicates few or no clouds below 12,000 feet
with no significant weather and/or obstructions to visibility.
 TC=TEMPERATURE CELSIUS

 * =Non NWS site. Station does not report precipitation (e.g. rain,
    snow, etc.), thunder, or fog.

DCZ001-MDZ009-015-VAZ040>042-051-053>054-030900-
WASHINGTON METRO

CITY           SKY/WX    TMP DP  RH WIND       PRES   REMARKS
WASHINGTON NAT LGT RAIN  63  61  93 CALM      29.81F
DULLES         LGT RAIN  62  61  96 CALM      29.80F
ANDREWS AFB    LGT RAIN  63  62  97 W6        29.80S
FT BELVOIR     LGT RAIN  62  60  95 CALM      29.80F FOG
QUANTICO       CLOUDY    65  62  90 CALM      29.81F
COLLEGE PARK*  CLOUDY    61  61 100 CALM      29.81S VSB 1/2
LEESBURG*      CLOUDY    63  63 100 CALM      29.81F FOG
MANASSAS*      MOCLDY    63  63 100 CALM      29.80F
GAITHERSBURG*  CLOUDY    61  57  88 E3        29.84F VSB 1/2

$$

MDZ006>007-011-014-030900-
BALTIMORE METRO

CITY           SKY/WX    TMP DP  RH WIND       PRES   REMARKS
BWI AIRPORT    LGT RAIN  59  58  96 NE3       29.81S FOG
MD SCIENCE CTR   N/A     60  58  92 MISG      29.81F
MARTIN STATE   RAIN      59  59 100 CALM      29.82F
ANNAPOLIS      LGT RAIN  59  59 100 N7        29.80S FOG
FORT MEADE*    CLOUDY    59  57  94 CALM      29.84S

$$

MDZ012-015-019>023-030900-
MARYLAND EASTERN SHORE

CITY           SKY/WX    TMP DP  RH WIND       PRES   REMARKS
OCEAN CITY     CLOUDY    61  60  97 S6        29.83R FOG
SALISBURY      LGT RAIN  64  63  96 S5        29.80R
CAMBRIDGE*       N/A     63  63 100 S3        29.79F
EASTON*        CLOUDY   N/A N/A N/A W3        29.82F

$$

MDZ017>025-030900-
SOUTHERN MARYLAND

CITY           SKY/WX    TMP DP  RH WIND       PRES   REMARKS
PATUXENT RIVER CLOUDY    64  62  93 W3        29.79F
ST INIGOES     RAIN      65  65 100 S6        29.80S FOG
LEONARDTOWN*   CLOUDY    63  61  94 SW5       29.81F

$$

MDZ003>005-030900-
NORTH CENTRAL MARYLAND

CITY           SKY/WX    TMP DP  RH WIND       PRES   REMARKS
FREDERICK*     DRIZZLE   61  61 100 S3        29.82F
HAGERSTOWN APT LGT RAIN  60  58  92 NW7       29.80F FOG
WESTMINSTER*   DRIZZLE   59  52  77 SE9       29.81F

$$

MDZ501>502-030900-
WESTERN MARYLAND

CITY           SKY/WX    TMP DP  RH WIND       PRES   REMARKS
OAKLAND*       FOG       48  48 100 NW3       29.87F VSB<1/4
CUMBERLAND*    CLOUDY    61  61 100 N3        29.87S

$$

VAZ025>031-030900-
SHENANDOAH VALLEY

CITY           SKY/WX    TMP DP  RH WIND       PRES   REMARKS
WINCHESTER*    CLOUDY    61  61 100 S3        29.82S FOG
FRONT ROYAL*   CLOUDY    59  59 100 CALM      29.82R
LURAY*         RAIN      61  61 100 CALM      29.84R
NEW MARKET*    CLOUDY    60  60 100 CALM      29.83R
STAUNTON*      CLOUDY   N/A N/A N/A CALM      29.86S HAZE
WAYNESBORO*    CLOUDY    60  58  94 SW6       29.86R

$$

WVZ021-048>050-054>055-030900-
EASTERN WEST VIRGINIA PANHANDLE

CITY           SKY/WX    TMP DP  RH WIND       PRES   REMARKS
MARTINSBURG    CLOUDY    60  60 100 SE3       29.80F FOG
PETERSBURG*    CLOUDY    62  58  85 CALM      29.84S

$$

VAZ036>039-050-030900-
CENTRAL FOOTHILLS

CITY           SKY/WX    TMP DP  RH WIND       PRES   REMARKS
CHARLOTTESVILL CLOUDY    62  60  93 CALM      29.82R FOG
CULPEPER*      RAIN      63  62  99 CALM      29.82S
ORANGE*        LGT RAIN  63  63 100 CALM      29.83S
GORDONSVILLE*  CLOUDY    61  61 100 CALM      29.81R
WARRENTON*     DRIZZLE   63  58  85 CALM      29.80F

$$

VAZ055>057-030900-
NORTH AND CENTRAL PIEDMONT

CITY           SKY/WX    TMP DP  RH WIND       PRES   REMARKS
FREDERICKSBRG* MOCLDY    64  64 100 CALM      29.79F
STAFFORD*      LGT RAIN  62  61  96 CALM      29.84F

$$

NCZ024-NYZ072-PAZ021-071-VAZ022-071-030900-
OTHER REGIONAL OBSERVATIONS

CITY           SKY/WX    TMP DP  RH WIND       PRES   REMARKS
NEW YORK CITY  LGT RAIN  53  51  93 E5        29.89F FOG
PHILADELPHIA   RAIN      57  54  89 E10       29.84S
PITTSBURGH     CLOUDY    49  43  80 NW7       29.87F
ROANOKE        CLOUDY    61  59  93 CALM      29.87S
RICHMOND       RAIN      64  63  96 SW6       29.81F
RALEIGH        RAIN      66  64  93 CALM      29.87F FOG

$$

ANZ530>537-030900-
MARINE OBSERVATIONS

STATION/POSITION TIME  TEMP    WIND        PRES
                       AIR SEA DIR/SP/G
                 (UTC) (F)     (DEG/KT/KT) (MB)
THOMAS PT LIGHT  0800   60 58  360/  7/  7 1010.4F
BALT KEY BRIDGE  0700   59      40/  5/  7 1009.3F
COVE POINT       0700   64     210/  8/  9 1009.8F
LEWISETTA        0700   65 62  260/  5/  6 1009.2F
SOLOMONS ISLAND  0700   64 61  210/  7/  8   N/A
PINEY POINT      0700          160/  1/  2   N/A

$$





USA.gov is the U.S. government's official web portal to all federal, state and local government web resources and services.